SCP
0 0 0 0 1 1 2 2 2 2 2 2 1 1 1 1 1 1 0 0 0 0
0 0 0 1 0 1 1 2 2 2 2 2 1 0 1 1 1 0 0 0 0 0
0 0 0 0 1 0 1 1 2 3 4 3 1 1 2 0 0 0 0 0 0 0
0 0 0 1 1 0 1 2 2 2 3 3 2 1 1 0 0 0 0 0 0 0
0 0 0 1 1 1 2 1 1 1 3 2 2 2 1 0 0 0 0 0 0 0
0 0 0 1 1 1 1 2 2 2 2 1 1 1 1 0 0 0 0 0 0 0
0 0 0 0 1 1 1 1 2 1 1 1 1 1 0 0 0 0 0 0 0 0
0 0 0 0 1 1 0 0 0 0 1 1 0 0 0 0 0 0 0 0 0 0
0 0 0 0 0 0 0 0 0 1 0 0 0 0 0 0 0 0 0 0 0 0
0 0 0 0 0 0 0 0 0 0 0 0 0 0 0 0 0 0 0 0 0 0
0 0 0 0 0 0 0 0 0 0 0 0 0 0 0 0 0 0 0 0 0 -0
0 0 0 0 0 0 0 0 0 0 0 0 0 0 0 0 0 0 0 0 0 0
0 0 0 0 0 0 0 0 0 0 0 0 0 0 0 0 0 0 0 0 0 0
0 0 0 0 0 0 0 0 0 0 0 0 0 0 0 0 0 0 0 0 0 0
Wind_Speed_500mb
40 42 40 37 48 63 63 68 69 66 50 43 42 45 49 56 59 59 43 64 61 60
43 37 41 40 42 52 69 67 59 54 50 41 43 44 50 55 51 50 56 64 75 65
45 37 39 40 42 46 59 60 53 58 57 46 44 47 53 51 45 51 44 53 71 62
42 36 40 41 37 43 45 49 56 56 46 46 48 52 55 53 55 57 47 63 80 83
39 35 37 36 34 41 45 55 58 50 49 49 47 55 59 63 73 72 65 78 84 66
39 34 29 33 30 34 43 44 48 41 42 46 49 56 63 72 78 69 67 76 70 67
37 30 22 28 30 37 37 39 30 30 39 40 51 58 61 69 74 73 69 66 62 59
34 27 18 23 30 34 43 48 42 59 56 41 48 61 60 65 58 60 77 70 68 59
34 24 16 17 31 32 44 45 54 48 36 42 50 59 51 54 73 71 79 79 74 65
32 23 18 16 22 30 37 36 32 25 28 43 45 42 56 65 74 79 86 90 77 70
28 24 19 16 19 23 31 37 37 26 35 39 29 32 50 63 82 74 73 68 66 70
26 24 19 17 20 19 29 39 40 33 28 26 28 34 64 75 81 71 77 74 71 74
25 23 17 19 20 20 23 35 33 26 21 25 31 52 59 84 71 80 82 80 75 68
27 24 15 25 20 24 32 34 33 25 28 28 52 62 80 84 79 90 90 86 80 63
Wind_Direction_500mb
299 305 297 288 255 246 239 243 247 253 246 239 245 257 261 255 249 247 245 235 227 224
285 287 287 288 269 249 244 239 238 237 231 244 257 258 257 248 242 236 246 227 216 218
278 275 279 276 270 255 248 237 230 223 229 242 254 255 250 238 236 232 230 218 206 206
271 266 272 271 253 248 235 222 216 220 232 247 246 251 241 230 221 224 221 208 203 193
274 266 262 262 252 230 212 211 216 225 231 237 242 247 237 222 216 224 222 199 197 200
276 278 265 251 231 224 219 220 222 229 235 241 246 242 233 221 226 221 212 205 202 192
274 282 274 244 227 210 211 225 223 234 243 248 246 242 239 223 224 216 198 193 194 200
268 274 275 241 225 222 220 226 227 260 259 243 242 238 233 228 221 201 198 197 187 188
269 265 260 234 219 222 225 230 226 238 234 235 236 239 232 223 190 189 191 183 172 164
268 259 245 235 232 228 226 226 229 227 236 239 233 231 222 209 201 194 181 167 165 161
263 254 240 233 252 231 217 215 211 219 235 239 229 228 223 206 192 177 172 172 165 159
253 248 239 236 253 237 221 203 211 208 232 225 220 217 204 180 166 173 168 162 161 157
241 238 225 242 252 223 211 204 193 194 201 208 217 212 204 174 175 169 159 153 150 155
233 228 216 239 243 220 204 188 188 184 186 206 204 202 201 186 182 167 154 149 148 145
Wind_Speed_850mb
40 42 40 37 48 63 63 68 69 66 50 43 42 45 49 56 59 59 43 64 61 60
43 37 41 40 42 52 69 67 59 54 50 41 43 44 50 55 51 50 56 64 75 65
45 37 39 40 42 46 59 60 53 58 57 46 44 47 53 51 45 51 44 53 71 62
42 36 40 41 37 43 45 49 56 56 46 46 48 52 55 53 55 57 47 63 80 83
39 35 37 36 34 41 45 55 58 50 49 49 47 55 59 63 73 72 65 78 84 66
39 34 29 33 30 34 43 44 48 41 42 46 49 56 63 72 78 69 67 76 70 67
37 30 22 28 30 37 37 39 30 30 39 40 51 58 61 69 74 73 69 66 62 59
34 27 18 23 30 34 43 48 42 59 56 41 48 61 60 65 58 60 77 70 68 59
34 24 16 17 31 32 44 45 54 48 36 42 50 59 51 54 73 71 79 79 74 65
32 23 18 16 22 30 37 36 32 25 28 43 45 42 56 65 74 79 86 90 77 70
28 24 19 16 19 23 31 37 37 26 35 39 29 32 50 63 82 74 73 68 66 70
26 24 19 17 20 19 29 39 40 33 28 26 28 34 64 75 81 71 77 74 71 74
25 23 17 19 20 20 23 35 33 26 21 25 31 52 59 84 71 80 82 80 75 68
27 24 15 25 20 24 32 34 33 25 28 28 52 62 80 84 79 90 90 86 80 63
Wind_Direction_850mb
299 305 297 288 255 246 239 243 247 253 246 239 245 257 261 255 249 247 245 235 227 224
285 287 287 288 269 249 244 239 238 237 231 244 257 258 257 248 242 236 246 227 216 218
278 275 279 276 270 255 248 237 230 223 229 242 254 255 250 238 236 232 230 218 206 206
271 266 272 271 253 248 235 222 216 220 232 247 246 251 241 230 221 224 221 208 203 193
274 266 262 262 252 230 212 211 216 225 231 237 242 247 237 222 216 224 222 199 197 200
276 278 265 251 231 224 219 220 222 229 235 241 246 242 233 221 226 221 212 205 202 192
274 282 274 244 227 210 211 225 223 234 243 248 246 242 239 223 224 216 198 193 194 200
268 274 275 241 225 222 220 226 227 260 259 243 242 238 233 228 221 201 198 197 187 188
269 265 260 234 219 222 225 230 226 238 234 235 236 239 232 223 190 189 191 183 172 164
268 259 245 235 232 228 226 226 229 227 236 239 233 231 222 209 201 194 181 167 165 161
263 254 240 233 252 231 217 215 211 219 235 239 229 228 223 206 192 177 172 172 165 159
253 248 239 236 253 237 221 203 211 208 232 225 220 217 204 180 166 173 168 162 161 157
241 238 225 242 252 223 211 204 193 194 201 208 217 212 204 174 175 169 159 153 150 155
233 228 216 239 243 220 204 188 188 184 186 206 204 202 201 186 182 167 154 149 148 145